When you browse on this site, cookies collect data to enhance your experience and personalize the content and advertising you see.
Visit our Privacy Policy to learn more. By continuing to use the site, you agree to this use of cookies and data.
  • In Deutschland
  • Länderverzeichnis
  • Für 7 Tage
  • Wassertemperatur
  • Satellitenkarten
  • Wetterkarte
  • Widgets
  • user-avatar
    Anmelden

    Stündliche Wetter Albany

    Heute, 25 April, Donnerstag

    Zeit Temperatur Niederschläge Wind Luftdruck Luftfeuchtigkeit
    00:00 +14°C° 0 mm 2 m/S 767 mmHg 88%
    01:00 +14°C° 0 mm 2 m/S 767 mmHg 90%
    02:00 +14°C° 0 mm 1 m/S 767 mmHg 91%
    03:00 +14°C° 0 mm 1 m/S 767 mmHg 92%
    04:00 +14°C° 0 mm 1 m/S 767 mmHg 93%
    05:00 +13°C° 0 mm 1 m/S 767 mmHg 94%
    06:00 +14°C° 0 mm 1 m/S 768 mmHg 92%
    07:00 +15°C° 0 mm 1 m/S 768 mmHg 89%
    08:00 +15°C° 0 mm 0 m/S 768 mmHg 84%
    09:00 +18°C° 0 mm 1 m/S 768 mmHg 77%
    10:00 +19°C° 0 mm 2 m/S 768 mmHg 70%
    11:00 +21°C° 0 mm 2 m/S 768 mmHg 63%
    12:00 +21°C° 0 mm 3 m/S 767 mmHg 63%
    13:00 +21°C° 0 mm 3 m/S 767 mmHg 63%
    14:00 +21°C° 0 mm 4 m/S 767 mmHg 64%
    15:00 +20°C° 0 mm 4 m/S 767 mmHg 68%
    16:00 +19°C° 0 mm 4 m/S 767 mmHg 71%
    17:00 +18°C° 0 mm 3 m/S 767 mmHg 74%
    18:00 +17°C° 0 mm 3 m/S 767 mmHg 79%
    19:00 +16°C° 0 mm 3 m/S 767 mmHg 83%
    20:00 +14°C° 0 mm 3 m/S 768 mmHg 87%
    21:00 +14°C° 0 mm 3 m/S 768 mmHg 87%
    22:00 +14°C° 0 mm 3 m/S 768 mmHg 88%
    23:00 +14°C° 0 mm 3 m/S 768 mmHg 88%

    Morgen, 26 April, Freitag

    Zeit Temperatur Niederschläge Wind Luftdruck Luftfeuchtigkeit
    00:00 +14°C° 0 mm 3 m/S 768 mmHg 89%
    01:00 +13°C° 0 mm 3 m/S 768 mmHg 89%
    02:00 +13°C° 0 mm 3 m/S 768 mmHg 90%
    03:00 +13°C° 0 mm 3 m/S 768 mmHg 90%
    04:00 +13°C° 0 mm 3 m/S 768 mmHg 90%
    05:00 +13°C° 0 mm 3 m/S 768 mmHg 91%
    06:00 +13°C° 0 mm 4 m/S 768 mmHg 89%
    07:00 +14°C° 0 mm 4 m/S 768 mmHg 86%
    08:00 +14°C° 0 mm 4 m/S 768 mmHg 84%
    09:00 +17°C° 0 mm 4 m/S 768 mmHg 75%
    10:00 +19°C° 0 mm 4 m/S 768 mmHg 67%
    11:00 +21°C° 0 mm 4 m/S 768 mmHg 58%
    12:00 +22°C° 0 mm 4 m/S 767 mmHg 54%
    13:00 +23°C° 0 mm 4 m/S 767 mmHg 51%
    14:00 +25°C° 0 mm 4 m/S 766 mmHg 47%
    15:00 +23°C° 0 mm 4 m/S 766 mmHg 52%
    16:00 +21°C° 0 mm 4 m/S 766 mmHg 58%
    17:00 +20°C° 0 mm 5 m/S 766 mmHg 63%
    18:00 +19°C° 0 mm 5 m/S 766 mmHg 70%
    19:00 +17°C° 0 mm 5 m/S 766 mmHg 77%
    20:00 +15°C° 0 mm 5 m/S 767 mmHg 85%
    21:00 +15°C° 0 mm 5 m/S 766 mmHg 85%
    22:00 +15°C° 0 mm 5 m/S 766 mmHg 85%
    23:00 +15°C° 0 mm 4 m/S 766 mmHg 85%

    übermorgen, 27 April, Samstag

    Zeit Temperatur Niederschläge Wind Luftdruck Luftfeuchtigkeit
    00:00 +14°C° 0 mm 4 m/S 766 mmHg 84%
    01:00 +14°C° 0 mm 4 m/S 766 mmHg 83%
    02:00 +14°C° 0 mm 4 m/S 766 mmHg 83%
    03:00 +14°C° 0 mm 4 m/S 766 mmHg 79%
    04:00 +14°C° 0 mm 3 m/S 766 mmHg 76%
    05:00 +14°C° 0 mm 3 m/S 766 mmHg 73%
    06:00 +16°C° 0 mm 3 m/S 766 mmHg 68%
    07:00 +16°C° 0 mm 3 m/S 766 mmHg 63%
    08:00 +17°C° 0 mm 3 m/S 766 mmHg 57%
    09:00 +20°C° 0 mm 3 m/S 766 mmHg 51%
    10:00 +22°C° 0 mm 3 m/S 766 mmHg 45%
    11:00 +26°C° 0 mm 3 m/S 766 mmHg 39%
    12:00 +26°C° 0 mm 3 m/S 765 mmHg 36%
    13:00 +27°C° 0 mm 2 m/S 765 mmHg 34%
    14:00 +28°C° 0 mm 2 m/S 764 mmHg 32%
    15:00 +27°C° 0 mm 3 m/S 764 mmHg 36%
    16:00 +25°C° 0 mm 3 m/S 764 mmHg 40%
    17:00 +24°C° 0 mm 3 m/S 763 mmHg 44%
    18:00 +21°C° 0 mm 3 m/S 764 mmHg 47%
    19:00 +20°C° 0 mm 3 m/S 764 mmHg 50%
    20:00 +18°C° 0 mm 3 m/S 764 mmHg 54%
    21:00 +18°C° 0 mm 3 m/S 764 mmHg 53%
    22:00 +17°C° 0 mm 4 m/S 764 mmHg 53%
    23:00 +17°C° 0 mm 4 m/S 764 mmHg 53%

    28 April, Sonntag

    Zeit Temperatur Niederschläge Wind Luftdruck Luftfeuchtigkeit
    00:00 +17°C° 0 mm 3 m/S 763 mmHg 51%
    01:00 +17°C° 0 mm 3 m/S 763 mmHg 49%
    02:00 +16°C° 0 mm 3 m/S 763 mmHg 47%
    03:00 +15°C° 0 mm 4 m/S 762 mmHg 46%
    04:00 +17°C° 0 mm 4 m/S 762 mmHg 44%
    05:00 +17°C° 0 mm 4 m/S 762 mmHg 42%
    06:00 +16°C° 0 mm 5 m/S 762 mmHg 43%
    07:00 +17°C° 0 mm 5 m/S 762 mmHg 43%
    08:00 +19°C° 0 mm 5 m/S 762 mmHg 44%
    09:00 +21°C° 0 mm 5 m/S 762 mmHg 41%
    10:00 +23°C° 0 mm 5 m/S 761 mmHg 37%
    11:00 +26°C° 0 mm 5 m/S 761 mmHg 34%
    12:00 +27°C° 0 mm 5 m/S 760 mmHg 32%
    13:00 +28°C° 0 mm 5 m/S 759 mmHg 30%
    14:00 +29°C° 0 mm 4 m/S 758 mmHg 29%
    15:00 +27°C° 0 mm 3 m/S 758 mmHg 32%
    16:00 +26°C° 0 mm 3 m/S 758 mmHg 35%
    17:00 +25°C° 0 mm 2 m/S 758 mmHg 38%
    18:00 +24°C° 0 mm 2 m/S 758 mmHg 39%
    19:00 +22°C° 0 mm 3 m/S 758 mmHg 40%
    20:00 +21°C° 0 mm 3 m/S 758 mmHg 41%
    21:00 +21°C° 0 mm 4 m/S 757 mmHg 42%
    22:00 +21°C° 0 mm 4 m/S 757 mmHg 43%
    23:00 +20°C° 0 mm 4 m/S 757 mmHg 45%

    29 April, Montag

    Zeit Temperatur Niederschläge Wind Luftdruck Luftfeuchtigkeit
    00:00 +20°C° 0 mm 4 m/S 757 mmHg 48%
    01:00 +20°C° 0 mm 4 m/S 757 mmHg 51%
    02:00 +19°C° 0 mm 4 m/S 757 mmHg 55%
    03:00 +19°C° 0 mm 4 m/S 757 mmHg 63%
    04:00 +19°C° 0 mm 4 m/S 757 mmHg 70%
    05:00 +19°C° 0 mm 4 m/S 757 mmHg 78%
    06:00 +17°C° 0.2 mm 5 m/S 758 mmHg 81%
    07:00 +17°C° 0.2 mm 5 m/S 759 mmHg 83%
    08:00 +17°C° 0.2 mm 6 m/S 759 mmHg 86%
    09:00 +17°C° 0 mm 6 m/S 760 mmHg 81%
    10:00 +17°C° 0 mm 6 m/S 760 mmHg 76%
    11:00 +16°C° 0 mm 7 m/S 761 mmHg 71%
    12:00 +17°C° 0 mm 7 m/S 761 mmHg 67%
    13:00 +17°C° 0 mm 7 m/S 761 mmHg 62%
    14:00 +17°C° 0 mm 7 m/S 761 mmHg 58%
    15:00 +17°C° 0 mm 6 m/S 761 mmHg 60%
    16:00 +16°C° 0 mm 6 m/S 762 mmHg 62%
    17:00 +16°C° 0 mm 5 m/S 762 mmHg 64%
    18:00 +15°C° 0 mm 4 m/S 763 mmHg 66%
    19:00 +14°C° 0 mm 4 m/S 763 mmHg 69%
    20:00 +13°C° 0 mm 3 m/S 764 mmHg 72%
    21:00 +13°C° 0 mm 3 m/S 764 mmHg 72%
    22:00 +13°C° 0 mm 3 m/S 765 mmHg 72%
    23:00 +14°C° 0 mm 3 m/S 765 mmHg 72%

    30 April, Dienstag

    Zeit Temperatur Niederschläge Wind Luftdruck Luftfeuchtigkeit
    00:00 +13°C° 0 mm 3 m/S 765 mmHg 72%
    01:00 +13°C° 0 mm 3 m/S 765 mmHg 72%
    02:00 +13°C° 0 mm 3 m/S 765 mmHg 72%
    03:00 +13°C° 0 mm 3 m/S 766 mmHg 73%
    04:00 +13°C° 0 mm 3 m/S 766 mmHg 73%
    05:00 +13°C° 0 mm 3 m/S 766 mmHg 74%
    06:00 +13°C° 0 mm 3 m/S 766 mmHg 73%
    07:00 +13°C° 0 mm 3 m/S 767 mmHg 72%
    08:00 +13°C° 0 mm 3 m/S 767 mmHg 71%
    09:00 +14°C° 0 mm 3 m/S 767 mmHg 66%
    10:00 +16°C° 0 mm 3 m/S 767 mmHg 62%
    11:00 +17°C° 0 mm 3 m/S 767 mmHg 58%
    12:00 +17°C° 0 mm 3 m/S 767 mmHg 57%
    13:00 +17°C° 0 mm 3 m/S 767 mmHg 57%
    14:00 +18°C° 0 mm 3 m/S 766 mmHg 56%
    15:00 +17°C° 0 mm 3 m/S 767 mmHg 59%
    16:00 +15°C° 0 mm 4 m/S 767 mmHg 62%
    17:00 +15°C° 0 mm 4 m/S 767 mmHg 65%
    18:00 +14°C° 0 mm 4 m/S 768 mmHg 69%
    19:00 +13°C° 0 mm 4 m/S 768 mmHg 74%
    20:00 +12°C° 0 mm 4 m/S 769 mmHg 78%
    21:00 +12°C° 0 mm 4 m/S 769 mmHg 80%
    22:00 +11°C° 0 mm 4 m/S 769 mmHg 81%
    23:00 +11°C° 0 mm 4 m/S 769 mmHg 83%
    Mehr zeigen